U12 SOD Cup B1 - SL
Offical Recreational - Results

Jury
TD WHITE VANCE OSL
Referee JONES JEFF CRAIG
Chief of Race MCDERMID MARDI OSL
Other Workers
Start Ref WESTLAKE ABBEY OSL
Finish Ref KARL JEFF OSL
Race Admin THOMSON JANE OSL
Chief of Timing WHITE VANCE OSL
Technical Data
Course Name
Start 560
Finish 382
Vertical Drop
Length
Homologation N/A
1st Run 2nd run
Course Setter BLACKETT G. OSL STATLER JULIE CRAIG
Number of Gates 39/39 39/39
Homologation N/A N/A
Forerunner 1 PADY OWEN OSL TRUSLER THOMAS OSL
Forerunner 2 FOSTER FINN OSL
Forerunner 3
Forerunner 4

Weather: WARM, DAMP

Snow:HARD PACKED, FAST

Temperature Start: 3 Temperature Finish: 6

Rank Card Bib Name Club YOB Category 1st Run 2nd run Total Time
1 85200 54 GIVERTZ-STEEL Ellie ALPIN 06 U12 36.44 39.34 1:15.78
2 81498 96 ROLSTON Jessica GEORG 06 U12 37.08 39.68 1:16.76
3 81511 94 CONACHER Magnolia GEORG 06 U12 36.70 40.19 1:16.89
4 84780 59 NODDER Alexandra GEORG 07 U12 37.93 40.84 1:18.77
5 80707 72 ADAIR Aliya GEORG 07 U12 38.60 41.13 1:19.73
6 88546 101 SMITH Vanessa ALPIN 06 U12 39.32 40.44 1:19.76
7 84811 60 DEEKS Jillian CRAIG 07 U12 38.02 41.77 1:19.79
8 81120 104 NOAKES Sophia GEORG 06 U12 39.48 41.59 1:21.07
9 85765 67 BERTRAM Stephanie OSLER 06 U12 39.34 42.03 1:21.37
10 84807 28 PARK Beatrice ALPIN 06 U12 38.92 42.61 1:21.53
11 84739 107 ARMSTRONG Kylie GEORG 07 U12 39.80 42.22 1:22.02
12 84876 16 SADDINGTON Elyse CRAIG 06 U12 39.65 42.80 1:22.45
13 88563 88 RUSSELL Scarlett CRAIG 06 U12 41.04 42.09 1:23.13
14 88571 81 JONES Briar CRAIG 07 U12 39.83 43.50 1:23.33
15 85941 93 JOHNSON Mackenzine ALPIN 06 U12 40.76 43.41 1:24.17
16 88552 62 BUNKER Grace CRAIG 06 U12 40.73 43.98 1:24.71
17 88553 105 SIMMONDS Claire CRAIG 06 U12 41.94 43.23 1:25.17
18 82208 55 TERNER Shiloh GEORG 06 U12 42.01 43.46 1:25.47
19 87850 100 BROCK Shelby ALPIN 07 U12 41.61 44.14 1:25.75
20 88498 15 RITCHIE Carolina CRAIG 06 U12 40.97 45.38 1:26.35
21 82198 14 CALDWELL Jessica GEORG 06 U12 41.07 45.60 1:26.67
22 87088 83 SINCLAIR Rachel OSLER 06 U12 42.43 44.33 1:26.76
23 85209 64 MEYEROWITZ Andi ALPIN 06 U12 42.42 44.57 1:26.99
24 88251 36 YOUNGER Robin OSLER 06 U12 42.41 45.35 1:27.76
25 88531 37 WINSTONE Hannah CRAIG 06 U12 42.81 45.71 1:28.52
26 88457 43 WALL Kenzie ALPIN 07 U12 42.66 47.32 1:29.98
27 88190 85 FONTANA Madeline CRAIG 06 U12 45.41 44.95 1:30.36
28 86251 9 ROLSTON Cassidy GEORG 07 U12 42.76 47.96 1:30.72
29 89520 3 GILBERT Grace OSLER 06 U12 42.56 48.20 1:30.76
30 88071 75 LEE Kathryn OSLER 06 U12 44.56 46.63 1:31.19
31 86279 23 WILSON Tori OSLER 06 U12 44.43 47.03 1:31.46
32 85916 24 COON Catherine GEORG 07 U12 44.07 47.83 1:31.90
33 89570 77 PARLEA-VUONG Serene OSLER 07 U12 45.46 46.76 1:32.22
34 87438 7 HORAK Sierra CRAIG 06 U12 44.17 48.46 1:32.63
35 80719 49 HAMILTON Sarah GEORG 06 U12 45.45 47.36 1:32.81
36 88543 4 FORTIER Beatrice CRAIG 06 U12 45.63 47.55 1:33.18
37 91017 71 LAMB Maggie CRAIG 07 U12 45.19 48.08 1:33.27
38 88579 8 DOBIE Payton GEORG 06 U12 44.94 48.38 1:33.32
39 85582 89 ORR Jane OSLER 06 U12 45.33 48.53 1:33.86
40 89777 30 FRASER Logan CRAIG 07 U12 46.16 47.83 1:33.99
41 81109 50 HUNTER Hilary GEORG 06 U12 46.18 48.05 1:34.23
42 87022 78 BOONE Samantha CRAIG 06 U12 46.46 47.88 1:34.34
43 89800 80 SCHULTE-HOSTEDDE Gisele CRAIG 07 U12 46.25 48.48 1:34.73
44 88523 38 COHEN Finley CRAIG 06 U12 45.94 49.58 1:35.52
45 85576 18 SCHARLACH Meredith OSLER 06 U12 39.80 55.96 1:35.76
46 89565 66 HEINTZMAN Sloan OSLER 07 U12 46.73 49.61 1:36.34
47 92087 90 BUSCH Nina CRAIG 07 U12 47.03 49.34 1:36.37
48 91591 79 BRANDON Riley GEORG 07 U12 47.61 48.99 1:36.60
49 81124 32 SCHEURING Erika GEORG 06 U12 47.70 49.05 1:36.75
50 88239 102 SQUIRE Ava CRAIG 06 U12 48.58 49.15 1:37.73
51 86271 34 WEIS Addison GEORG 07 U12 47.58 51.17 1:38.75
52 88605 86 PHELPS Alexa CRAIG 06 U12 49.82 49.93 1:39.75
53 92088 65 WROBEL Camden CRAIG 07 U12 49.39 50.65 1:40.04
54 92061 35 HOGG Alexa CRAIG 07 U12 49.24 50.89 1:40.13
55 88557 68 TKACHUK Alexandra CRAIG 06 U12 47.97 52.27 1:40.24
56 87086 25 PACAUD Charlotte OSLER 07 U12 48.57 52.15 1:40.72
57 77614 56 KONSTANTINOVSKI Masha CRAIG 07 U12 48.44 52.70 1:41.14
58 87082 41 CREED Makayla OSLER 06 U12 50.15 51.91 1:42.06
59 87514 57 ABELL Alexandra OSLER 06 U12 50.39 51.97 1:42.36
60 92090 82 POPE Janey CRAIG 07 U12 50.21 52.65 1:42.86
61 92069 46 ABBOTT Sarah CRAIG 07 U12 50.31 52.72 1:43.03
62 92089 42 LAVERY Keira CRAIG 07 U12 50.75 52.31 1:43.06
63 88195 92 HANSEN Sydney OSLER 06 U12 50.59 53.13 1:43.72
64 89787 26 KERNAGHAN Claire OSLER 07 U12 50.55 53.49 1:44.04
65 89567 108 WIGNALL Hailey OSLER 07 U12 51.96 52.48 1:44.44
66 91882 33 DALGLISH Louisa OSLER 07 U12 51.46 53.06 1:44.52
67 91895 61 WEINGUST Skye CRAIG 07 U12 51.08 53.77 1:44.85
67 91883 2 MAGWOOD Signy OSLER 07 U12 51.34 53.51 1:44.85
69 87081 91 CREED Mia OSLER 06 U12 52.12 52.86 1:44.98
70 89571 95 IRELAND Ezmay OSLER 07 U12 56.13 56.82 1:52.95
71 87084 45 LOWE Madyn OSLER 07 U12 55.08 58.19 1:53.27
72 87889 70 NEEDHAM Samantha OSLER 06 U12 55.71 58.16 1:53.87
73 87891 98 O'NEILL Dylan OSLER 06 U12 1:04.81 50.73 1:55.54
74 87842 84 TODD Yael ALPIN 07 U12 43.55 1:14.51 1:58.06
999 91706 10 PARISELLI Grace CRAIG 07 U12 DNS DNS
999 87500 13 O'BRIEN Niamh OSLER 07 U12 DNS DNS
999 88534 22 GUTTMAN Teia CRAIG 06 U12 DNS DNS
999 87090 29 SISLEY Jillian OSLER 07 U12 DNS DNS
999 91270 40 HODGSON Grace OSLER 07 U12 DNS DNS
999 88524 58 ILIOPOULOS Katerina CRAIG 06 U12 DNS DNS
999 88532 63 BURNES Kaitlyn CRAIG 06 U12 DNS DNS
999 92064 76 BUNTING Georgia CRAIG 07 U12 DNS DNS
999 81135 6 WEBSTER Katja GEORG 06 U12 DNF 040.39
999 89566 19 JAMES Emma OSLER 07 U12 DNF 042.42
999 87027 21 HORAK Michele CRAIG 06 U12 DNF 041.28
999 89776 39 DURNFORD Paige OSLER 07 U12 DNF 046.82
999 81494 47 MACGREGOR Natalie GEORG 06 U12 DNF 043.34
999 92067 51 BRANNON Piper CRAIG 07 U12 DNF 060.02
999 81499 69 ROLSTON Sierra GEORG 06 U12 DNF 039.47
999 88495 97 USHER-JONES Ella CRAIG 06 U12 DNF 049.26
999 86270 1 CHURCHILL Claudia GEORG 07 U12 DSQ - 27 047.29
999 89770 5 COWAN Allegra CRAIG 07 U12 DSQ - 38 046.06
999 87840 11 MULCAHY Kate CRAIG 06 U12 DSQ - 26 047.91
999 88028 17 KEMBAR Leyla GEORG 06 U12 DSQ - 26 049.45
999 81094 20 CARTER Olivia GEORG 06 U12 DSQ - 30 049.69
999 88231 31 PATERSON Odessa CRAIG 06 U12 DSQ - 27 042.94
999 89785 44 JESPERSEN Madeleine CRAIG 07 U12 DSQ - 36 054.16
999 88492 73 PARTRIDGE Sadie CRAIG 06 U12 DSQ - 26 042.36
999 91893 87 HIND Kathryn CRAIG 07 U12 DSQ - 35 047.91
999 87030 99 PICKERSGILL Charlotte CRAIG 06 U12 DSQ - 25 050.35
999 87847 103 BENNETT Myka OSLER 06 U12 DSQ - 26 048.86
999 89784 106 HUGHES Tallulah OSLER 07 U12 DSQ - 33 052.60
999 88455 12 ROSSBAUM Genevieve ALPIN 07 U12 042.84 DNF
999 88216 27 MACPHERSON Maiah GEORG 07 U12 042.44 DNF
999 88556 48 SOUTHAM Emerson CRAIG 06 U12 045.91 DNF
999 87021 52 BEECROFT Elizabeth CRAIG 06 U12 037.62 DNF
999 88587 53 BUCKRELL Maeve OSLER 06 U12 039.48 DNF
999 85742 74 HENNESSEY Reese GEORG 07 U12 038.15 DNF
999 80497 109 KAUFMAN Nikka CRAIG 07 U12 038.48 DNF
27/01/2018 / Osler Bluff / REC18.5011
© MECTiming All Rights Reserverd 2018